Regional Weather Roundup
Issued by NWS Upton, NY

Current Version | Previous Version | Graphics & Text | Print | Product List | Glossary Off
Versions: 1 2 3 4 5 6 7 8 9 10 11 12 13 14 15 16 17 18 19 20 21 22 23 24 25 26 27 28 29 30 31 32 33 34 35 36 37 38 39 40 41 42 43 44 45 46 47 48 49

000
ASUS41 KOKX 041708
RWROKX

REGIONAL WEATHER ROUNDUP
NATIONAL WEATHER SERVICE NEW YORK NY
100 PM EDT MON MAY 04 2015

NOTE: "FAIR" INDICATES FEW OR NO CLOUDS BELOW 12,000 FEET WITH NO
SIGNIFICANT WEATHER AND/OR OBSTRUCTIONS TO VISIBILITY.

NYZ071-072-176-178-NJZ106-104-041800-
NEW YORK CITY METRO AREA


CITY           SKY/WX    TMP DP  RH WIND       PRES   REMARKS
CENTRAL PARK   SUNNY     84  44  24 W9        30.20F
LAGUARDIA APRT MOSUNNY   82  43  25 S15G22    30.17F
KENNEDY INTL   MOSUNNY   72  49  44 SE9       30.21F
NEWARK/LIBERTY MOSUNNY   83  39  21 SW13      30.17F
BRNX BOT. GARD   N/A     82  43  24 S7        30.19F
TETERBORO      MOSUNNY   83  42  23 S13G22    30.15F
$$

NYZ177-179-078>081-041800-
LONG ISLAND NEW YORK

CITY           SKY/WX    TMP DP  RH WIND       PRES   REMARKS
FARMINGDALE    SUNNY     71  51  49 S8        30.21F
ISLIP          MOSUNNY   70  48  45 S14       30.20F
SHIRLEY        SUNNY     69  49  48 SW12      30.22F
WESTHAMPTON    SUNNY     68  48  48 S9        30.23F
MONTAUK POINT    N/A     63  48  58 S9G17     30.23F
$$

NYZ052-065-067-041800-
HUDSON VALLEY

CITY           SKY/WX    TMP DP  RH WIND       PRES   REMARKS
WHITE PLAINS   MOSUNNY   80  47  31 S9        30.17F
NEWBURGH       MOSUNNY   81  43  26 W12G21    30.16F
MONTGOMERY     MOSUNNY   84  42  22 SW18G28   30.13F
POUGHKEEPSIE   SUNNY     84  35  17 SW12G20   30.12F
ALBANY         MOSUNNY   82  42  24 S8        30.09F
$$

NJZ001-105-106-008-010-013-015-019>022-104-041800-
NEW JERSEY

CITY           SKY/WX    TMP DP  RH WIND       PRES   REMARKS
NEWARK/LIBERTY MOSUNNY   83  39  21 SW13      30.17F
TETERBORO      MOSUNNY   83  42  23 S13G22    30.15F
CALDWELL       MOSUNNY   83  36  18 SW10G21   30.17F
MORRISTOWN     MOSUNNY   82  39  21 SW18G26   30.17F
SOMERVILLE     CLOUDY    82  40  22 SW8       30.16F
SUSSEX         SUNNY     82  40  22 S14G23    30.17F
ANDOVER          N/A     81  37  20 SW12G22   30.17F
TRENTON        MOSUNNY   82  42  24 SW10      30.19F
MILLVILLE      SUNNY     81  44  27 SW12G22   30.23F
ATLANTIC CITY  MOSUNNY   82  38  20 SW14G22   30.22F
WRIGHTSTOWN    MOSUNNY   83  39  20 W10G22    30.17F
TOMS RIVER     PTSUNNY   84  39  20 W6        30.19F
BELMAR         MOSUNNY   84  39  20 S9G18     30.20F
$$

PAZ047>061-062-071-041800-
EASTERN PENNSYLVANIA

CITY           SKY/WX    TMP DP  RH WIND       PRES   REMARKS
PHILADELPHIA   MOSUNNY   83  46  27 W13G21    30.21F
ALLENTOWN      MOSUNNY   82  40  22 SW13      30.18F
SCRANTON       SUNNY     82  38  20 W9G25     30.15F
$$

CTZ002-004>006-009-010-012-RIZ004-006-007-MAZ004-011-015-041800-
SOUTHERN NEW ENGLAND
 IN CT

CITY           SKY/WX    TMP DP  RH WIND       PRES   REMARKS
BRADLEY INTL   PTSUNNY   84  43  23 S9G22     30.12F
HARTFORD       SUNNY    N/A N/A N/A SW18G25   30.14F
DANBURY        MOSUNNY   79  37  22 SW15G24   30.17F
WTRBRY/OXFORD  MOSUNNY   79  45  29 SW14G23   30.18F
BRIDGEPORT     SUNNY     68  53  58 E6        30.19F
MERIDEN        SUNNY     80  44  27 S16       30.16F
NEW HAVEN      SUNNY     66  50  56 S6        30.19F
CHESTER        FAIR      73  45  35 S10       30.20F
GROTON         SUNNY     62  48  60 S7        30.20F
WILLIMANTIC    MOSUNNY   83  38  20 SW16G24   30.15F

 IN RI

CITY           SKY/WX    TMP DP  RH WIND       PRES   REMARKS
PROVIDENCE     MOSUNNY   66  50  56 SE12      30.18F
BLOCK ISLAND   SUNNY     61  46  59 SW17      30.23F
WESTERLY       SUNNY     63  50  62 S8        30.21F

 IN MA

CITY           SKY/WX    TMP DP  RH WIND       PRES   REMARKS
BOSTON         MOSUNNY   80  46  30 S12       30.13F
WORCESTER      MOSUNNY   79  34  19 W13G24    30.16F
WESTFIELD      MOSUNNY   82  43  25 VRB5      30.12F
PROVINCETOWN   SUNNY     66  48  52 S14G20    30.19F
NANTUCKET      SUNNY     58  50  75 S13       30.25F
$$

ANZ330-335-338-340-345-350-353-355-041800-
COASTAL MARINE OBSERVATIONS


STATION/POSITION TIME  SKY/WX   TEMP    WIND        PRES    VSBY  WAVE
                                AIR SEA DIR/SP/G                  HT/PER
                 (UTC)          (F)     (DEG/KT/KT) (MB)    (MI)  (FT/S)
NY HARB ENTRANCE 1650            56 53  170/ 12/ 14 1022.6          3/ 9
4S FIRE IS       1603               51                N/A           3/ 8
20S FIRE ISLAND  1650            51 49  180/ 10/ 12 1023.9          3/ 9
GREAT SOUTH BAY  1615            56 59  220/  8/ 10   N/A
23SW MTP         1650            50 46  210/ 10/ 12 1023.7          3/ 9
HUDSON CANYON    NOT AVBL
EXECUTION ROCKS  NOT AVBL
WESTERN LI SOUND NOT AVBL
CENTRAL LI SOUND NOT AVBL
EASTERN LI SOUND 1600            50     140/  4/  4   N/A
ROBBINS REEF     1600            64     170/ 16/ 17 1021.5
$$


>>>>>>>>>>>>>>>>>>>>>>>>>>>> KEY <<<<<<<<<<<<<<<<<<<<<<<<<<<
>                                                          <
>     SKY/WX - SKY CONDITION/PRESENT WEATHER               <
>     TMP    - TEMPERATURE IN FAHRENHEIT                   <
>     DP     - DEWPOINT IN FAHRENHEIT                      <
>     RH     - RELATIVE HUMIDITY IN PERCENT                <
>     WIND   - DIRECTION AND SPEED IN MPH                  <
>     PRES   - MEAN SEA LEVEL PRESSURE IN INCHES OF HG     <
>     WCI    - WIND CHILL INDEX                            <
>     VSB    - VISIBILITY IN MILES                         <
>     HX     - HEAT INDEX                                  <
>     TC     - TEMPERATURE IN CELSIUS                      <
>     VRB    - VARIABLE WIND DIRECTION                     <
>                                                          <
>>>>>>>>>>>>>>>>>>>>>>>>>>>> KEY <<<<<<<<<<<<<<<<<<<<<<<<<<<





USA.gov is the U.S. government's official web portal to all federal, state and local government web resources and services.